CZ-6A DEB, 55206

Orbit data source: Space-Track

CZ-6A DEB, 55206 is space debris in SSO originally from a launch on Fri, 11 Nov 2022 UTC launched from the Taiyaun Space Center, China (TSC). Debris objects in space refer to the collection of defunct objects orbiting the Earth. Examples of debris include non-operational satellites, rocket bodies, and fragments generated from explosions, collisions, or faulty payload assembly.

Loading next visibility...
Identifier
55206, 2022-151VX
Orbit
SSO
Country
Flag of CNCN / PRC
Related business
Manufacturer
SAST
Mission
Spacecraft
Bus & Motor
Unknown
Mass
Unknown
Launch date (UTC)
2022-11-11 (4 years ago)
Launch vehicle
Unknown
Launch site
Taiyaun Space Center, China (TSC)
Object type
Payload
Rocket body
Debris
Shape & HBR
Unknown shape, 0.1 m
Radar Cross Section
Small (<0.1 m²)

Expand to show TLE details & history
Last TLE update: 1 day ago

TLE from 1 day ago
0 CZ-6A DEB
1 55206U 22151VX  26143.80647000  .01994302  00000-0  11166-1 0  9994
2 55206  98.6050 240.3252 0027767 274.8504  84.9587 15.75667731182117
Epoch: 2026-05-23T19:21Z
TLE epoch observation values (Epoch: 2026-05-23T19:21:19.007Z)
Latitude
-0°
Longitude
68.57832°
Altitude
344.27 km
Speed
7.703 km/s
True Right ascension
16h 01m 18s
True Declination
0° 00' 00"
Sunlit
Object was in full shadow at epoch
Visualization orbit readout
Latitude
Unknown
Longitude
Unknown
Altitude
Unknown
Speed
Unknown
Apparent Right ascension
Unknown
Apparent Declination
Unknown
Sunlit
N/A
Visualization observer readout
Local Sidereal Time
09:15:06
Azimuth
Unknown
Elevation
Unknown
Doppler factor
Unknown
Orbital elements
Apogee altitude
358.334 km
Perigee altitude
321.027 km
Semi-major axis
6,717.817 km
Eccentricity
0.00278
Inclination
98.605°
RAAN
240.3252°
Arg. of periapsis
274.8504°
True anomaly
85.27575°
Mean anomaly
84.9587°
Eccentric anomaly
85.11722°
Mean motion
3.94186 °/min
Orbital period
91.33 mins
BSTAR
0.011166
Loading maneuver chart data...
Computing Atmospheric mass density...
Loading historical data...
Loading historical data...
Loading historical data...
Loading historical data...
Loading historical data...
Loading historical data...
Loading historical data...

Documentation

Showing up to 5 results
|